Precipitable_Water
1.39 1.45 1.45 1.48 1.42 1.46 1.45 1.54 1.72 1.79 1.87 1.76 1.80 1.74 1.73 1.82 1.91 1.90 1.85 1.78 1.71 1.66 1.66 1.70 1.59 1.42 1.29 1.34 1.43 1.52 1.61 1.69 1.75 1.75 1.71 1.72 1.67 1.57 1.58 1.55 1.50 1.48 1.49
1.46 1.34 1.47 1.45 1.44 1.42 1.57 1.65 1.76 1.72 1.76 1.87 1.80 1.76 1.75 1.83 1.94 1.83 1.76 1.86 1.84 1.61 1.51 1.47 1.48 1.44 1.39 1.41 1.45 1.52 1.61 1.69 1.71 1.70 1.73 1.74 1.66 1.54 1.56 1.57 1.59 1.54 1.47
1.54 1.51 1.46 1.38 1.63 1.58 1.57 1.70 1.77 1.85 1.55 1.73 1.65 1.70 1.66 1.78 1.96 1.81 1.73 1.72 1.89 1.61 1.51 1.39 1.43 1.49 1.45 1.44 1.50 1.57 1.65 1.68 1.71 1.72 1.74 1.76 1.70 1.56 1.43 1.28 1.28 1.31 1.38
1.60 1.48 1.52 1.54 1.65 1.56 1.60 1.67 1.73 1.62 1.74 1.69 1.65 1.66 1.70 1.57 1.62 1.72 1.75 1.72 1.80 1.67 1.50 1.60 1.43 1.48 1.50 1.46 1.50 1.59 1.71 1.75 1.80 1.79 1.76 1.78 1.75 1.67 1.47 1.28 1.31 1.30 1.26
1.55 1.49 1.66 1.56 1.59 1.50 1.68 1.43 1.68 1.58 1.70 1.69 1.47 1.71 1.67 1.54 1.61 1.73 1.86 1.84 1.84 1.80 1.65 1.73 1.72 1.51 1.57 1.55 1.52 1.58 1.69 1.73 1.75 1.76 1.72 1.74 1.75 1.71 1.58 1.36 1.34 1.49 1.45
1.75 1.54 1.53 1.42 1.46 1.36 1.53 1.54 1.56 1.64 1.75 1.59 1.48 1.60 1.62 1.61 1.65 1.55 1.67 1.84 1.83 1.82 1.79 1.79 1.71 1.65 1.59 1.61 1.60 1.64 1.71 1.77 1.69 1.66 1.62 1.60 1.63 1.66 1.68 1.52 1.27 1.32 1.41
1.66 1.69 1.54 1.42 1.39 1.32 1.45 1.36 1.49 1.47 1.57 1.59 1.37 1.54 1.50 1.57 1.61 1.71 1.81 1.78 1.86 1.76 1.78 1.77 1.68 1.61 1.66 1.71 1.64 1.67 1.74 1.71 1.68 1.65 1.59 1.54 1.53 1.56 1.60 1.57 1.48 1.27 1.33
1.37 1.36 1.35 1.46 1.42 1.33 1.43 1.43 1.32 1.35 1.57 1.68 1.39 1.45 1.37 1.46 1.76 1.82 1.83 1.79 1.74 1.79 1.84 1.91 1.84 1.78 1.74 1.77 1.70 1.68 1.74 1.76 1.69 1.65 1.64 1.64 1.58 1.53 1.51 1.52 1.46 1.33 1.33
1.56 1.39 1.38 1.46 1.42 1.43 1.36 1.43 1.45 1.49 1.46 1.66 1.75 1.38 1.19 1.21 1.55 1.73 1.72 1.77 1.90 1.75 1.92 1.95 1.94 1.90 1.87 1.89 1.77 1.71 1.75 1.77 1.70 1.60 1.58 1.55 1.64 1.71 1.64 1.50 1.39 1.40 1.13
1.52 1.43 1.35 1.36 1.40 1.45 1.36 1.55 1.60 1.64 1.60 1.48 1.66 1.56 1.46 1.41 1.18 1.30 1.63 1.63 1.88 1.79 1.92 1.95 1.84 1.95 2.07 1.83 1.78 1.76 1.84 1.86 1.83 1.70 1.64 1.66 1.64 1.61 1.65 1.73 1.72 1.38 1.23
1.60 1.56 1.49 1.51 1.45 1.36 1.42 1.50 1.63 1.69 1.66 1.61 1.48 1.43 1.42 1.42 1.49 1.31 1.27 1.51 1.69 1.73 1.87 1.82 1.77 1.91 2.05 1.95 1.86 1.88 1.93 1.93 1.91 1.89 1.82 1.77 1.76 1.81 1.86 1.89 1.78 1.80 1.52
1.63 1.57 1.48 1.44 1.45 1.38 1.52 1.60 1.78 1.67 1.69 1.73 1.65 1.36 1.44 1.38 1.35 1.33 1.27 1.28 1.40 1.67 1.97 1.94 1.84 2.10 2.11 2.11 2.06 2.11 2.07 2.01 1.99 2.01 1.95 1.95 1.91 1.93 1.95 1.96 1.99 1.92 1.86
1.57 1.56 1.55 1.55 1.57 1.62 1.69 1.72 1.69 1.67 1.66 1.62 1.54 1.37 1.57 1.54 1.52 1.49 1.43 1.35 1.45 1.67 1.84 2.00 2.05 2.20 2.26 2.19 2.18 2.16 2.15 2.04 2.01 1.99 1.99 1.99 2.03 2.02 1.98 1.94 1.96 2.06 2.04
1.61 1.72 1.66 1.64 1.63 1.65 1.75 1.82 1.77 1.68 1.59 1.55 1.60 1.51 1.49 1.60 1.74 1.68 1.54 1.52 1.38 1.53 1.74 1.83 2.15 2.07 2.13 2.22 2.20 2.19 2.20 2.15 2.06 2.01 1.93 1.96 1.99 1.99 2.00 1.96 1.98 2.00 2.06
1.67 1.76 1.75 1.80 1.77 1.71 1.72 1.69 1.71 1.66 1.63 1.66 1.58 1.67 1.64 1.63 1.80 1.58 1.67 1.76 1.55 1.35 1.49 1.83 1.90 1.93 2.04 2.21 2.10 2.08 2.12 2.15 2.01 1.95 1.93 1.91 1.95 1.96 1.98 2.03 2.07 2.07 2.06
1.73 1.94 1.75 1.88 1.86 1.77 1.77 1.67 1.68 1.76 1.65 1.58 1.62 1.67 1.85 1.71 1.68 1.58 1.78 1.82 1.76 1.59 1.35 1.68 1.77 2.00 2.11 2.18 2.41 2.34 2.27 2.19 2.14 2.07 2.04 2.00 1.99 1.99 1.97 1.98 2.00 2.01 2.01
1.78 1.80 1.86 1.89 1.87 1.75 1.75 1.69 1.69 1.59 1.53 1.63 1.69 1.67 1.82 1.82 1.64 1.55 1.64 1.72 1.76 1.61 1.40 1.51 1.73 1.93 1.98 2.16 2.28 2.36 2.30 2.21 2.15 2.20 2.13 2.09 2.03 1.99 1.96 1.95 1.95 1.95 1.96
1.75 1.81 1.81 1.81 1.71 1.64 1.73 1.70 1.67 1.57 1.55 1.60 1.70 1.75 1.72 1.84 1.65 1.57 1.58 1.52 1.67 1.76 1.64 1.62 1.93 1.95 2.02 2.17 2.22 2.18 2.19 2.19 2.15 2.14 2.11 2.07 2.04 1.98 1.94 1.92 1.90 1.89 1.89
1.74 1.83 1.78 1.63 1.62 1.49 1.58 1.62 1.59 1.61 1.65 1.68 1.78 1.84 1.81 1.76 1.68 1.75 1.81 1.64 1.71 1.86 1.89 1.80 1.78 1.92 1.95 2.02 1.99 2.00 2.01 2.02 2.07 2.05 2.03 2.00 1.99 1.98 1.96 1.94 1.93 1.92 1.92
1.63 1.64 1.59 1.58 1.48 1.40 1.55 1.63 1.60 1.67 1.75 1.75 1.88 1.90 1.89 1.89 1.77 1.85 1.88 1.79 1.69 1.73 1.84 1.76 1.70 1.70 1.76 1.87 1.90 1.78 1.74 1.86 1.81 1.94 1.95 1.93 1.94 1.93 1.93 1.90 1.88 1.86 1.82
1.54 1.51 1.53 1.55 1.55 1.52 1.55 1.60 1.58 1.64 1.68 1.74 1.80 1.76 1.95 2.00 2.00 1.94 1.83 1.86 1.80 1.67 1.67 1.61 1.62 1.66 1.67 1.70 1.66 1.76 1.71 1.77 1.84 1.85 1.83 1.83 1.83 1.80 1.82 1.82 1.79 1.71 1.63
1.57 1.59 1.50 1.52 1.53 1.55 1.59 1.60 1.56 1.50 1.52 1.56 1.54 1.68 1.82 1.89 1.94 2.00 2.03 2.08 2.03 1.81 1.74 1.70 1.67 1.61 1.64 1.67 1.71 1.67 1.63 1.57 1.51 1.83 1.76 1.76 1.83 1.77 1.81 1.81 1.71 1.62 1.60
1.65 1.64 1.62 1.59 1.58 1.53 1.54 1.52 1.56 1.58 1.55 1.54 1.57 1.58 1.62 1.76 1.82 1.87 1.90 1.98 1.95 1.91 1.92 1.83 1.66 1.65 1.62 1.67 1.67 1.62 1.65 1.64 1.60 1.73 1.71 1.62 1.76 1.68 1.71 1.62 1.56 1.51 1.47
1.73 1.65 1.66 1.73 1.69 1.65 1.64 1.54 1.48 1.49 1.53 1.59 1.61 1.61 1.61 1.59 1.64 1.65 1.76 1.84 1.82 1.86 1.87 1.86 1.79 1.72 1.70 1.66 1.71 1.79 1.71 1.70 1.82 1.81 1.76 1.46 1.58 1.51 1.51 1.41 1.32 1.30 1.25
1.69 1.85 1.85 1.84 1.86 1.79 1.86 1.83 1.73 1.61 1.53 1.57 1.71 1.76 1.73 1.63 1.59 1.61 1.57 1.54 1.63 1.70 1.76 1.73 1.63 1.57 1.60 1.75 1.91 1.83 1.70 1.58 1.53 1.59 1.70 1.54 1.52 1.41 1.35 1.29 1.26 1.21 1.11
2.06 2.07 2.05 2.07 2.00 1.90 1.96 1.98 2.00 1.96 1.82 1.79 1.82 1.84 1.86 1.87 1.78 1.70 1.61 1.53 1.47 1.53 1.57 1.52 1.53 1.60 1.71 1.83 1.97 1.93 1.81 1.58 1.52 1.44 1.60 1.42 1.42 1.31 1.16 1.25 1.21 1.20 1.10
Wind_Speed
12 13 12 11 10 9 7 6 3 1 1 3 4 4 3 1 3 4 4 7 8 9 8 10 9 10 11 12 12 11 10 9 8 7 6 4 3 4 7 10 13 13 13
12 13 12 10 8 9 7 4 2 3 3 3 3 4 5 5 5 5 4 5 8 9 10 10 10 11 12 13 13 12 11 11 10 9 8 7 5 3 4 7 10 13 14
12 12 11 11 9 9 5 3 2 0 1 3 3 3 3 3 2 6 6 5 7 9 10 10 11 12 12 13 13 13 12 11 11 10 9 8 8 6 4 4 6 8 11
11 13 11 11 9 7 5 3 2 2 4 4 5 3 2 5 2 3 5 7 8 9 9 10 11 11 12 12 12 12 12 11 10 10 10 9 9 9 7 5 5 6 8
13 13 11 11 9 6 4 4 3 3 2 3 3 5 5 4 5 4 5 5 5 7 9 10 10 11 11 11 11 11 11 10 10 9 10 10 10 10 9 8 7 6 6
12 12 11 10 8 7 4 3 3 2 3 2 4 5 4 5 5 6 4 5 6 8 8 9 9 10 11 10 11 11 11 10 10 10 10 10 10 10 10 9 8 6 5
12 11 10 9 7 6 5 3 2 2 1 2 3 4 6 5 5 6 5 6 7 6 6 8 8 9 10 10 10 10 10 11 11 10 10 10 10 9 9 9 9 8 7
12 11 10 9 7 6 5 4 3 3 1 2 2 2 4 5 4 6 7 6 8 8 5 6 7 7 8 9 9 9 10 10 10 10 9 9 9 9 9 9 9 8 7
13 11 11 10 8 6 5 4 3 3 2 1 2 4 4 3 4 4 4 5 3 3 4 4 5 5 6 7 8 8 9 9 9 9 8 8 8 8 8 8 8 8 7
13 12 12 11 9 8 6 5 4 4 2 2 2 3 3 2 4 3 3 3 2 3 4 5 4 4 5 5 6 6 8 8 8 8 8 8 7 6 6 5 6 6 6
13 11 11 10 9 8 8 6 5 5 4 3 3 2 2 3 3 3 3 3 3 4 4 3 3 2 2 4 4 5 6 7 7 7 7 7 6 5 5 3 3 3 4
14 12 12 11 9 8 9 8 7 6 5 4 3 2 3 3 2 2 1 1 2 3 2 1 2 2 2 4 3 4 5 6 6 6 6 6 6 5 4 3 1 1 1
15 13 13 12 10 9 10 10 9 7 7 6 5 4 4 3 1 2 1 1 1 1 2 2 1 0 1 3 3 3 4 5 5 5 6 6 5 6 6 4 3 2 2
15 15 14 12 11 9 9 10 10 9 9 8 6 5 5 5 3 2 2 1 1 1 1 1 2 4 4 4 3 2 3 5 5 5 5 6 6 7 6 4 3 4 4
17 16 16 14 12 11 9 9 9 9 9 8 8 6 6 7 6 3 3 2 3 3 3 3 3 5 1 2 2 3 4 5 5 5 5 7 7 7 6 6 6 6 6
17 17 17 16 15 13 12 11 10 10 9 9 9 8 7 7 6 4 3 3 2 2 2 3 4 4 3 3 3 4 4 5 5 5 7 8 8 8 8 8 8 8 8
19 17 18 15 17 16 15 13 13 12 11 10 10 10 9 8 8 6 4 4 5 4 4 3 4 4 5 5 5 6 6 7 7 7 9 10 10 10 10 10 10 10 10
20 20 18 17 16 17 16 15 15 13 12 12 11 11 11 10 9 8 7 5 5 6 5 6 5 5 6 7 7 8 8 9 9 10 11 12 12 12 12 12 11 11 11
22 21 20 19 18 17 16 16 16 15 13 13 13 13 12 12 11 10 9 8 8 8 7 7 7 8 8 9 9 10 11 11 12 12 13 13 13 13 12 12 12 13 13
23 22 21 20 20 20 19 18 17 17 15 15 15 14 14 14 14 13 13 11 11 10 10 10 10 11 11 11 12 12 13 14 14 14 14 14 14 13 13 13 14 15 15
25 24 23 21 21 21 20 20 20 19 18 17 16 16 15 15 15 15 15 14 13 12 12 12 12 13 13 14 14 15 15 15 15 17 16 16 15 15 15 16 16 16 16
24 24 24 23 23 23 22 22 21 21 20 19 18 17 16 16 16 16 16 16 15 15 15 14 15 15 16 16 16 17 16 17 17 18 17 17 17 17 17 17 16 16 16
25 26 26 25 25 24 23 23 23 22 22 22 21 20 19 18 17 17 17 18 16 16 16 17 17 17 17 18 18 18 18 19 19 18 18 18 18 17 17 17 17 17 17
28 27 27 27 26 26 25 24 24 24 24 24 24 23 22 21 20 19 19 18 18 18 17 17 18 18 19 19 18 20 20 18 17 17 18 19 18 18 18 18 17 17 17
27 29 29 29 29 28 27 27 26 26 26 26 25 25 24 23 23 22 21 21 20 19 19 19 19 18 19 19 19 18 17 16 17 17 17 17 18 18 18 17 16 16 16
28 28 29 29 30 30 29 30 29 29 29 28 28 27 27 26 24 24 24 23 22 22 21 20 19 19 18 19 19 18 18 18 17 17 18 18 17 16 15 15 15 16 15
Wind_Direction
160 158 154 155 157 158 148 140 113 143 357 44 39 39 36 21 23 21 52 50 49 51 52 55 63 67 71 77 80 85 87 89 89 88 87 95 121 176 199 209 212 211 207
162 165 163 162 159 158 152 140 101 106 59 52 44 42 43 54 58 59 45 59 58 56 63 68 77 75 76 78 80 82 81 80 80 78 76 78 83 114 172 194 206 211 213
163 165 172 163 157 160 166 159 151 68 92 34 26 14 17 7 72 38 42 76 79 67 71 76 83 80 79 79 79 79 77 75 73 72 71 71 73 78 110 163 186 197 205
170 166 165 167 168 161 163 159 131 106 61 40 43 31 9 25 132 57 84 84 82 73 81 80 81 82 80 78 77 74 72 71 71 70 69 70 71 72 83 109 147 171 187
163 171 160 165 162 159 150 157 133 122 46 50 26 44 28 53 83 88 96 86 83 93 83 78 79 77 77 75 72 68 67 67 69 70 69 70 71 72 77 88 105 134 161
165 166 170 171 170 170 169 155 153 100 70 43 46 27 38 85 85 85 104 84 95 105 85 79 81 78 76 73 70 65 63 63 66 68 69 70 71 72 75 81 92 104 126
176 173 174 176 176 181 185 178 169 136 74 29 17 18 70 103 102 78 97 95 101 108 99 80 81 81 76 72 68 63 61 62 65 66 68 69 72 75 76 78 83 89 98
188 185 185 187 186 185 189 185 177 167 119 24 6 62 103 102 80 81 107 97 102 75 98 88 90 86 78 70 63 62 59 57 60 62 65 67 71 74 76 77 79 83 89
195 195 197 196 198 197 197 192 189 182 146 66 65 98 113 99 94 105 99 122 122 63 88 101 91 87 83 71 59 55 55 52 53 57 58 66 70 73 76 76 77 79 84
197 201 203 205 205 203 198 200 199 193 179 112 114 113 112 122 124 93 90 115 94 101 102 109 92 104 67 66 57 52 50 46 51 53 55 60 63 66 72 75 75 76 77
203 205 204 208 210 209 208 212 205 199 191 176 146 143 132 105 124 130 97 74 88 132 105 95 102 109 50 58 57 47 41 40 45 48 50 52 54 55 55 57 64 70 72
208 212 211 210 215 221 216 213 207 205 204 204 203 190 165 152 137 139 127 107 104 108 141 102 104 109 59 46 38 29 30 33 38 40 41 41 40 33 20 12 356 15 23
212 214 212 213 221 224 220 217 215 215 214 217 217 206 202 198 187 186 175 172 145 124 121 107 86 329 146 357 13 3 12 18 19 22 20 15 11 6 356 340 325 295 294
215 217 216 217 223 223 223 220 219 221 220 222 222 220 220 215 223 232 211 202 203 161 164 273 298 287 260 321 312 329 346 355 353 355 359 359 357 355 356 349 323 313 278
219 219 221 221 223 223 221 223 219 218 220 222 228 226 227 223 227 248 233 230 219 222 252 264 283 328 347 262 315 318 322 332 330 333 339 341 341 342 344 341 326 313 303
220 221 220 223 225 228 226 226 225 222 222 228 227 228 225 224 225 242 233 227 232 237 252 263 278 291 303 290 296 310 313 324 322 324 327 330 328 325 322 319 315 307 300
220 218 221 225 225 230 230 230 227 229 231 233 230 229 233 231 234 236 241 243 245 249 258 272 288 288 293 286 295 301 308 305 309 309 313 315 316 314 312 308 305 300 296
218 219 222 228 228 229 229 230 226 230 235 233 233 233 236 234 237 233 242 245 249 248 257 266 274 291 290 292 288 293 293 297 297 302 304 307 308 304 304 303 301 299 297
221 223 226 230 229 228 227 228 228 230 235 236 235 236 238 237 237 238 241 248 252 254 261 267 275 285 292 290 287 289 289 292 295 295 299 302 304 304 302 300 298 299 297
225 227 229 231 231 230 231 232 232 232 236 236 238 241 243 239 242 242 245 249 253 257 261 267 277 282 285 290 285 286 288 289 291 292 296 298 298 300 299 298 297 297 296
226 229 230 231 231 232 234 234 235 236 237 240 242 244 245 242 245 246 246 249 251 256 262 269 276 281 284 285 285 285 287 286 288 289 289 292 292 295 295 296 297 296 295
227 229 230 232 233 234 235 235 237 238 239 241 243 244 246 247 249 248 249 250 254 257 262 268 274 279 283 285 286 285 283 285 288 283 285 286 287 291 292 293 296 295 293
232 231 233 234 234 235 236 238 239 241 242 242 243 246 248 249 250 250 251 254 257 260 264 269 274 277 280 283 286 285 283 284 285 283 282 284 284 288 290 291 292 295 294
237 236 234 235 237 238 238 240 241 242 243 244 245 246 249 249 250 250 252 253 258 262 266 271 274 278 283 284 286 288 284 283 287 284 282 282 280 284 286 288 289 291 292
238 237 236 236 239 241 241 242 243 244 245 246 247 246 248 249 250 250 252 253 256 261 266 270 274 277 283 284 286 286 286 283 285 285 283 287 283 282 285 284 284 290 294
242 239 239 239 241 244 245 245 245 246 246 247 247 248 247 248 248 249 252 252 255 259 263 268 271 277 278 286 283 283 282 282 283 286 283 286 282 279 284 283 283 287 291